User: anonymous   Login
Location: Goheenville
(40.9070°N, 79.3720°W)
Time: 19:15:18
(UTC-05:00)
Language:

Meteor 2-10 Rocket - Orbit

View from above orbital plane
View from above orbital plane
View from above satellite
View from above satellite

Ground track
Ground track

The orbit data is extracted from the following two-line orbital elements,

1 14453U 83109B   17054.89404267 +.00000044 +00000-0 +12638-4 0  9997
2 14453 081.1654 220.2676 0105465 031.9363 328.8150 14.24667470731329
Epoch (UTC): 23 February 2017 21:27:25
Eccentricity: 0.0105465
inclination: 81.1654°
perigee height: 734 km
apogee height: 885 km
right ascension of ascending node: 220.2676°
argument of perigee: 31.9363°
revolutions per day: 14.24667470
mean anomaly at epoch: 328.8150°
orbit number at epoch: 73132

The dashed part of the orbit path shows where the satellite is in the earth's shadow,  

DLR